星链-36048(STARLINK-36048)

导读

STARLINK-36048是美国太空探索技术公司星链互联网星座的成员,于2025年11月22日由美国发射升空。该卫星属于Starlink项目,依托近地轨道部署,旨在为全球提供低延迟、高速率的宽带互联网覆盖,补全星链星座的组网架构,支撑全球各类场景的互联网接入服务。

Basic Information
目录编号:
66603
目录名称:
STARLINK-36048
国际标识:
2025-270R
轨道中心:
EARTH
卫星名称:
星链-36048
卫星全名:
星链-36048(STARLINK-36048)
卫星状态:
在轨 (已飞行286 天)
发射日期:
2025-11-22 UTC
国别 :
美国 (US)
星等 :
--
Orbit Information
数据来源 国际轨道数据 AOE轨道数据
星历时间 2026-09-03T10:45:53+0800
1天前
查看轨道信息
2026-09-01T23:00:00+0800
2天前
查看轨道信息
半长轴 6861.152km 6861.226km
偏心率 0.0001508 0.0001674
轨道倾角 42.998° 43.000°
近地点辐角 286.504° 263.958°
升交点赤经 133.928° 142.344°
平近点角 73.565° 171.453°
近地点 481.98km 481.94km
远地点 484.05km 484.238km
周期 94.266分钟 94.268分钟
每日圈数 15.275917 15.275669
Detailed Information
固有亮度:
5
最大亮度:
2.5
卫星平台:
Starlink V1.0
覆盖范围:
全球
运营商:
太空探索技术公司
运营商所在国:
美国
制造商(研发单位):
太空探索技术公司
制造商所在国:
美国
使用方式:
暂无
Satellite Introduction
Starlink 计划是 SpaceX 推出的全球卫星互联网项目,通过发射低轨道卫星,为全球尤其是偏远地区提供高速、低延迟的互联网服务。自 2019 年起,Starlink 已部署数千颗卫星,旨在缩小全球数字鸿沟,推动互联网普及。该项目还为军事、航空等行业提供通信支持,带来广泛经济效益。
2D Orbit Map
3D Orbit Map
Orbit Altitude Analysis Chart
Orbit Inclination Analysis Chart
Orbit Comprehensive Analysis Chart
View Comprehensive Chart
Conjunction Data List
Event ID Objects TCA Miss Dist (km) Collision Risk Probability Collision Risk Index (CRI) Action
CDM_260829-113305-538506-660321
2026-08-29T
11:33:42+0000
0.633 km
远距离
7.525027E-5 中风险 0.73
CDM_260904-114105-321606-660321
2026-09-04T
11:41:39+0000
1.232 km
极远距离
1.285141E-5 中风险 0.57
CDM_260829-175205-557606-660322
2026-08-29T
17:52:53+0000
1.079 km
极远距离
1.163165E-5 中风险 0.56
CDM_260829-095905-538506-660321
2026-08-29T
09:59:33+0000
2.935 km
极远距离
9.594024E-7 极低风险 0.35